Regional Weather Roundup
Issued by NWS

Home | Current Version | Previous Version | Text Only | Print | Product List | Glossary On
Versions: 1 2 3 4 5 6 7 8 9 10 11 12 13 14 15 16 17 18 19 20 21 22 23 24 25 26 27 28 29 30 31 32 33 34 35 36 37 38 39 40 41 42 43 44 45 46 47 48 49 50
000
ASUS43 KDTX 271501
RWRMI
MICHIGAN HOURLY REGIONAL WEATHER ROUNDUP
NATIONAL WEATHER SERVICE DETROIT/PONTIAC MI
1100 AM EDT MON APR 27 2015

NOTE: "FAIR" INDICATES FEW OR NO CLOUDS BELOW 12,000 FEET WITH NO
SIGNIFICANT WEATHER AND/OR OBSTRUCTION TO VISIBILITY.

MIZ047>049-052>055-059>063-066>070-074>076-081>083-271600-
SOUTHEAST LOWER MICHIGAN

CITY           SKY/WX    TMP DP  RH WIND       PRES   REMARKS
ADRIAN         CLOUDY    45  36  70 N10       30.02R
ALMA           CLOUDY    47  34  60 N9        30.03S
ANN ARBOR      CLOUDY    45  35  68 N16G22    30.00R
BAD AXE        CLOUDY    40  35  80 N13G20    30.01R WCI  33
CARO           CLOUDY    41  36  80 N12G18    30.02R
DETROIT CITY   CLOUDY    44  33  65 N12G21    30.00R
DETROIT        CLOUDY    48  34  58 N10       30.00R
FLINT          CLOUDY    46  37  71 N12       30.02R
HILLSDALE      CLOUDY    46  35  67 N5        30.01R
HOWELL         CLOUDY    42  36  77 N7G18     30.00R

CITY           SKY/WX    TMP DP  RH WIND       PRES   REMARKS
JACKSON        CLOUDY    45  34  65 N9        30.02R
LAMBERTVILLE   CLOUDY    46  36  66 NW7       30.01R
LANSING        CLOUDY    45  34  65 N13       30.03R
LAPEER         CLOUDY    41  35  77 N9        30.00R
MASON          CLOUDY    43  35  72 N9        30.02R
MONROE         CLOUDY    45  36  70 CALM      29.99R
MT. CLEMENS    CLOUDY    43  36  74 N15G21    29.96R
PONTIAC        CLOUDY    43  33  68 N15G22    29.98R
PORT HOPE        N/A     40  35  83 N9        30.00R WCI  34
PORT HURON     CLOUDY    39  36  87 N12G17    29.99R WCI  32
TRI CITIES     CLOUDY    47  33  58 N13       30.03R
MIDLAND        CLOUDY    47  32  56 N7        30.03R
TROY           CLOUDY    45  35  66 N10G17    30.01R
SAGINAW HB     CLOUDY    45  34  65 N16       30.02R
$$
MIZ043>046-050>051-056>058-064>065-071>073-077>080-271600-
SOUTHWEST LOWER MICHIGAN

CITY           SKY/WX    TMP DP  RH WIND       PRES   REMARKS
BATTLE CREEK   CLOUDY    49  35  58 N12       30.03R
BENTON HARBOR  CLOUDY    42  36  79 VRB7      30.08R
BIG RAPIDS     CLOUDY    45  32  61 N14G20    30.04R
COLDWATER      CLOUDY    47  35  61 N7        30.02R
FREMONT        CLOUDY    49  31  49 N13G21    30.05R
HOLLAND        PTSUNNY   50  35  56 VRB7      30.06R
GRAND RAPIDS   PTSUNNY   49  34  56 N12       30.04R
IONIA          CLOUDY    45  34  65 N12G17    30.03R
KALAMAZOO      CLOUDY    49  35  58 N10       30.04R
LUDINGTON      CLOUDY    47  36  64 N13G18    30.10R
MARSHALL       CLOUDY    45  34  64 N6        30.02R
MOUNT PLEASANT CLOUDY    46  33  61 N8        30.03R
MUSKEGON       PTSUNNY   50  32  50 N16G24    30.07R
SOUTH HAVEN    PTSUNNY   46  37  68 NW12G17   30.07R
$$
MIZ016>042-271600-
NORTHERN LOWER MICHIGAN

CITY           SKY/WX    TMP DP  RH WIND       PRES   REMARKS
BEAVER ISLAND  MOSUNNY   46  33  61 NW10      30.11R
BELLAIRE       CLOUDY    46  33  60 N7        30.08R
CADILLAC       CLOUDY    44  33  66 N9G16     30.04S
CHARLEVOIX     MOSUNNY   41  35  77 N12       30.13R
FRANKFORT      CLOUDY    44  32  63 N9        30.11R
GAYLORD        CLOUDY    42  33  70 VRB6      30.05R
GRAYLING       CLOUDY    44  33  63 N8        30.05R
HARBOR SPRINGS CLOUDY    48  33  55 N7        30.07R
HOUGHTON LAKE  CLOUDY    45  32  60 N10G18    30.03S
MANISTEE       CLOUDY    43  32  65 NW12      30.11R
OSCODA         CLOUDY    45  35  66 N14       30.02R
PELLSTON       PTSUNNY   47  33  58 N8G17     30.09R
ROGERS CITY    MOSUNNY   44  36  71 N12G17    30.07R
TRAVERSE CITY  CLOUDY    45  33  63 N14       30.08R
$$
MIZ007>008-015-271600-
EASTERN UPPER MICHIGAN

CITY           SKY/WX    TMP DP  RH WIND       PRES   REMARKS
KINROSS        MOSUNNY   45  36  70 N12       30.07R
MACKINAC ISLAN MOSUNNY   47  34  60 N9        30.07R
NEWBERRY       CLOUDY    43  35  73 N9G23     30.11R
S. S. MARIE    PTSUNNY   46  33  60 VRB6      30.07R
$$
MIZ004>006-011>014-085-271600-
CENTRAL UPPER MICHIGAN

CITY           SKY/WX    TMP DP  RH WIND       PRES   REMARKS
MANISTIQUE     PTSUNNY   47  33  59 N15G21    30.11R
ESCANABA       PTSUNNY   48  32  53 N15G21    30.13S
MENOMINEE      SUNNY     48  32  53 N13       30.13S
SAWYER-GWINN   MOSUNNY   41  32  70 N12G21    30.17R
$$
MIZ001>003-009>011-084-271600-
WESTERN UPPER MICHIGAN

CITY           SKY/WX    TMP DP  RH WIND       PRES   REMARKS
IRON MOUNTAIN  SUNNY     50  30  46 N17       30.13F
HOUGHTON       SUNNY     47  31  53 N9        30.19S
COPPER HARBOR    N/A     39  32  76 N8        30.21R WCI  33
IRONWOOD       SUNNY     48  30  49 N5        30.19S
$$

ABBREVIATIONS USED IN REMARKS
   TC - TEMPERATURE IN CELSIUS
  WCI - WIND CHILL INDEX
   HX - HEAT INDEX
  VSB - VISIBILITY



USA.gov is the U.S. government's official web portal to all federal, state and local government web resources and services.